Change the Weather History Date:

Wednesday, March 21, 2012

  Actual Average Record
Temperature  
Mean Temperature 76 °F 75 °F  
Max Temperature 82 °F 82 °F 86 °F (1989)
Min Temperature 69 °F 68 °F 58 °F (1958)
Degree Days  
Heating Degree Days 0 0  
Month to date heating degree days 0 0  
Since 1 July heating degree days 0 0  
Cooling Degree Days 11 10  
Month to date cooling degree days 190 193  
Year to date cooling degree days 736 675  
Growing Degree Days 26 (Base 50)    
Moisture  
Dew Point 62 °F    
Average Humidity 62    
Maximum Humidity 78    
Minimum Humidity 46    
Precipitation  
Precipitation T in 0.06 in 1.83 in (1951)
Month to date precipitation 5.50 1.43  
Year to date precipitation 7.20 5.73  
Snow  
Snow 0.00 in - - ()
Month to date snowfall 0.0  
Since 1 July snowfall 0.0  
Snow Depth 0.00 in    
Sea Level Pressure  
Sea Level Pressure 30.09 in    
Wind  
Wind Speed 13 mph (ENE)    
Max Wind Speed 23 mph    
Max Gust Speed 29 mph    
Visibility 10 miles    
Events Rain    
T = Trace of Precipitation, MM = Missing Value Source: NWS Daily Summary

Daily Weather History Graph

Daily Weather History Graph

Search for Another Location

Airport or City:

Trip Planner

Search our weather history database for the weather conditions in past years. The results will help you decide how hot, cold, wet, or windy it might be!

Date:

Astronomy

Mar. 21, 2012 Rise Set
Actual Time 6:34 AM HST 6:43 PM HST
Civil Twilight 6:11 AM HST 7:05 PM HST
Nautical Twilight 5:46 AM HST 7:31 PM HST
Astronomical Twilight 5:20 AM HST 7:57 PM HST
Moon 5:50 AM HST 6:17 PM HST
Length of Visible Light 12h 53m
Length of Day
12h 09m
Waning Crescent, 0% of the Moon is Illuminated
Mar 21
Waning Crescent
Mar 22
New
Mar 30
First Quarter
Apr 6
Full
Apr 13
Last Quarter

Hourly Weather History & Observations

Time (HST) Temp. Heat Index Dew Point Humidity Pressure Visibility Wind Dir Wind Speed Gust Speed Precip Events Conditions
12:53 AM 73.0 °F - 62.1 °F 68% 30.09 in 10.0 mi ENE 10.4 mph - N/A   Partly Cloudy
1:53 AM 72.0 °F - 62.1 °F 71% 30.08 in 10.0 mi NE 12.7 mph - N/A   Partly Cloudy
2:53 AM 72.0 °F - 62.1 °F 71% 30.06 in 10.0 mi ENE 12.7 mph - N/A   Partly Cloudy
3:53 AM 71.1 °F - 61.0 °F 70% 30.06 in 10.0 mi NE 9.2 mph - N/A   Partly Cloudy
4:53 AM 70.0 °F - 62.1 °F 76% 30.07 in 10.0 mi NE 11.5 mph - N/A   Scattered Clouds
5:53 AM 71.1 °F - 63.0 °F 75% 30.07 in 10.0 mi ENE 5.8 mph - 0.00 in   Scattered Clouds
6:53 AM 71.1 °F - 61.0 °F 70% 30.08 in 10.0 mi ENE 6.9 mph - N/A   Scattered Clouds
7:53 AM 72.0 °F - 62.1 °F 71% 30.11 in 10.0 mi East 10.4 mph - 0.00 in   Scattered Clouds
8:53 AM 75.9 °F - 60.1 °F 58% 30.12 in 10.0 mi East 13.8 mph - N/A   Scattered Clouds
9:53 AM 77.0 °F - 60.1 °F 56% 30.14 in 10.0 mi ENE 13.8 mph 21.9 mph N/A   Scattered Clouds
10:53 AM 77.0 °F - 63.0 °F 62% 30.13 in 10.0 mi ENE 15.0 mph - 0.00 in   Scattered Clouds
11:53 AM 81.0 °F 81.7 °F 61.0 °F 50% 30.10 in 10.0 mi ENE 18.4 mph 25.3 mph N/A   Scattered Clouds
12:53 PM 80.1 °F 81.1 °F 61.0 °F 52% 30.09 in 10.0 mi ENE 13.8 mph 24.2 mph N/A   Scattered Clouds
1:53 PM 82.0 °F 82.1 °F 59.0 °F 45% 30.06 in 10.0 mi ENE 21.9 mph 28.8 mph N/A   Scattered Clouds
2:53 PM 78.1 °F - 61.0 °F 56% 30.06 in 10.0 mi ENE 16.1 mph 24.2 mph N/A   Scattered Clouds
3:53 PM 78.1 °F - 61.0 °F 56% 30.04 in 10.0 mi ENE 18.4 mph - N/A   Mostly Cloudy
4:53 PM 75.9 °F - 61.0 °F 60% 30.05 in 10.0 mi ENE 16.1 mph 26.5 mph N/A   Mostly Cloudy
5:53 PM 77.0 °F - 61.0 °F 58% 30.05 in 10.0 mi NE 12.7 mph - N/A   Scattered Clouds
6:53 PM 75.0 °F - 62.1 °F 64% 30.08 in 10.0 mi NE 11.5 mph 18.4 mph 0.00 in   Mostly Cloudy
7:53 PM 73.0 °F - 63.0 °F 71% 30.09 in 10.0 mi NE 12.7 mph 21.9 mph 0.00 in   Scattered Clouds
8:53 PM 73.9 °F - 62.1 °F 66% 30.11 in 10.0 mi NE 19.6 mph 24.2 mph 0.00 in   Scattered Clouds
9:53 PM 72.0 °F - 64.0 °F 76% 30.12 in 10.0 mi NE 15.0 mph - 0.00 in   Scattered Clouds
10:53 PM 72.0 °F - 63.0 °F 73% 30.12 in 10.0 mi ENE 13.8 mph - 0.00 in Rain Light Rain
11:53 PM 71.1 °F - 63.0 °F 75% 30.10 in 10.0 mi ENE 16.1 mph - 0.00 in   Scattered Clouds